Belize City, Belize

1:22 PM CST on December 02, 2016 (GMT -0600)
Philip S W Goldson International

Weather History for MZBZ - March, 2013

Change the Weather History Date:

Wednesday, March 6, 2013

  Actual Average Record
Temperature  
Mean Temperature 74 °F -  
Max Temperature 83 °F 82 °F 92 °F (2014)
Min Temperature 65 °F 72 °F 64 °F (2002)
Cooling Degree Days 9    
Growing Degree Days 24 (Base 50)    
Moisture  
Dew Point 66 °F    
Average Humidity 70    
Maximum Humidity 94    
Minimum Humidity 38    
Precipitation  
Precipitation 0.00 in - - ()
Sea Level Pressure  
Sea Level Pressure 30.11 in    
Wind  
Wind Speed 3 mph ()    
Max Wind Speed 9 mph    
Max Gust Speed -    
Visibility 9.1 miles    
Events      
Averages and records for this station are not official NWS values.
T = Trace of Precipitation, MM = Missing Value Source: Averaged Metar Reports

Daily Weather History Graph

Daily Weather History Graph

Search for Another Location

Airport or City:

Trip Planner

Search our weather history database for the weather conditions in past years. The results will help you decide how hot, cold, wet, or windy it might be!

Date:

Astronomy

Mar. 06, 2013 Rise Set
Actual Time 6:07 AM CST 6:01 PM CST
Civil Twilight 5:46 AM CST 6:22 PM CST
Nautical Twilight 5:20 AM CST 6:48 PM CST
Astronomical Twilight 4:55 AM CST 7:13 PM CST
Moon 1:41 AM CST (3/6) 1:16 PM CST (3/6)
Length of Visible Light 12h 36m
Length of Day
11h 53m
Waning Crescent, 29% of the Moon is Illuminated
Mar 6
Waning Crescent
Mar 11
New
Mar 19
First Quarter
Mar 27
Full
Apr 2
Last Quarter

Hourly Weather History & Observations

Time (CST) Temp. Heat Index Dew Point Humidity Pressure Visibility Wind Dir Wind Speed Gust Speed Precip Events Conditions
12:00 AM 69 °F - 66 °F 87% 30.07 in 12 mi Calm Calm - -   Scattered Clouds
3:00 AM 68 °F - 65 °F 87% 30.05 in 12 mi Calm Calm - -   Partly Cloudy
5:00 AM 66.2 °F - 64.4 °F 94% 30.06 in 6.2 mi Calm Calm - N/A   Scattered Clouds
6:00 AM 65 °F - 64 °F 93% 30.09 in 12 mi Calm Calm - -   Scattered Clouds
6:00 AM 66.2 °F - 64.4 °F 94% 30.09 in 6.2 mi Calm Calm - N/A   Mostly Cloudy
7:00 AM 66.2 °F - 64.4 °F 94% 30.12 in 6.2 mi Calm Calm - N/A   Mostly Cloudy
8:00 AM 69.8 °F - 66.2 °F 88% 30.12 in 6.2 mi WNW 4.6 mph - N/A   Mostly Cloudy
9:00 AM 75 °F - 67 °F 68% 30.17 in 16 mi WNW 4.6 mph - -   Scattered Clouds
9:00 AM 75.2 °F - 66.2 °F 73% 30.16 in 6.2 mi WNW 4.6 mph - N/A   Scattered Clouds
10:00 AM 78.8 °F - 66.2 °F 65% 30.16 in 6.2 mi NW 6.9 mph - N/A   Scattered Clouds
11:00 AM 80.6 °F 82.3 °F 64.4 °F 58% 30.15 in 6.2 mi NE 6.9 mph - N/A   Scattered Clouds
12:00 PM 82 °F - 60 °F 38% 30.14 in 16 mi ENE 8.1 mph - -   Partly Cloudy
12:00 PM 82.4 °F 83.9 °F 64.4 °F 54% 30.12 in 6.2 mi ENE 8.1 mph - N/A   Scattered Clouds
1:00 PM 82.4 °F 84.6 °F 66.2 °F 58% 30.10 in 6.2 mi ENE 9.2 mph - N/A   Scattered Clouds
2:00 PM 82.4 °F 84.6 °F 66.2 °F 58% 30.09 in 6.2 mi ENE 9.2 mph - N/A   Partly Cloudy
3:00 PM 83 °F - 68 °F 52% 30.08 in 17 mi ENE 9.2 mph - -   Scattered Clouds
3:00 PM 84.2 °F 87.3 °F 68.0 °F 58% 30.07 in 6.2 mi ENE 9.2 mph - N/A   Partly Cloudy
4:00 PM 82.4 °F 83.9 °F 64.4 °F 54% 30.07 in 6.2 mi East 9.2 mph - N/A   Partly Cloudy
5:00 PM 80.6 °F 82.7 °F 66.2 °F 61% 30.08 in 6.2 mi East 8.1 mph - N/A   Partly Cloudy
6:00 PM 78 °F - 67 °F 62% 30.10 in 17 mi East 5.8 mph - -   Scattered Clouds
6:00 PM 78.8 °F - 68.0 °F 69% 30.09 in 6.2 mi East 5.8 mph - N/A   Partly Cloudy
9:00 PM 74 °F - 65 °F 65% 30.14 in 12 mi SSE 3.5 mph - -   Clear